Weather History for Detroit Metro, MI

Change the Weather History Date:

Sunday, September 29, 2013

  Actual Average Record
Temperature  
Mean Temperature 17 °C 15 °C  
Max Temperature 18 °C 20 °C 31 °C (1953)
Min Temperature 15 °C 9 °C 0 °C (1942)
Degree Days  
Heating Degree Days 3 7  
Month to date heating degree days 98 96  
Since 1 July heating degree days 110 106  
Cooling Degree Days 0 1  
Month to date cooling degree days 78 82  
Year to date cooling degree days 871 793  
Growing Degree Days 12 (Base 50)    
Moisture  
Dew Point 15 °C    
Average Humidity 86    
Maximum Humidity 100    
Minimum Humidity 72    
Precipitation  
Precipitation 2.54 mm 2.54 mm 3.89 mm (1896)
Month to date precipitation 1.20 3.17  
Year to date precipitation 32.18 25.60  
Snow  
Snow 0.00 cm 0.00 cm 0.00 cm ()
Month to date snowfall 0.0 0.0  
Since 1 July snowfall 0.0 0.0  
Since 1 September snowfall 0.0 0.0  
Snow Depth 0.00 cm    
Sea Level Pressure  
Sea Level Pressure 1015 hPa    
Wind  
Wind Speed 10 km/h (South)    
Max Wind Speed 23 km/h    
Max Gust Speed 26 km/h    
Visibility 10 kilometers    
Events Rain    
T = Trace of Precipitation, MM = Missing Value Source: NWS Daily Summary

Daily Weather History Graph

Daily Weather History Graph

Search for Another Location

Airport:

Trip Planner

Search our weather history database for the weather conditions in past years. The results will help you decide how hot, cold, wet, or windy it might be!

Date:

Astronomy

Sep. 29, 2013 Rise Set
Actual Time 7:28 AM EDT 7:17 PM EDT
Civil Twilight 7:00 AM EDT 7:45 PM EDT
Nautical Twilight 6:27 AM EDT 8:18 PM EDT
Astronomical Twilight 5:54 AM EDT 8:51 PM EDT
Moon 2:03 AM EDT (9/29) 4:17 PM EDT (9/29)
Length of Visible Light 12h 45m
Length of Day
11h 49m
Waning Crescent, 27% of the Moon is Illuminated
Sep 29
Waning Crescent
Oct 4
New
Oct 11
First Quarter
Oct 18
Full
Oct 26
Last Quarter

Hourly Weather History & Observations

Time (EDT) Temp. Dew Point Humidity Pressure Visibility Wind Dir Wind Speed Gust Speed Precip Events Conditions
12:53 AM 17.2 °C 13.3 °C 78% 1017.2 hPa 16.1 km SSE 13.0 km/h / 3.6 m/s - N/A   Clear
1:53 AM 16.7 °C 13.3 °C 80% 1016.9 hPa 16.1 km SSE 11.1 km/h / 3.1 m/s - N/A   Scattered Clouds
2:53 AM 16.7 °C 12.8 °C 78% 1016.3 hPa 16.1 km SSE 11.1 km/h / 3.1 m/s - N/A   Mostly Cloudy
3:53 AM 16.7 °C 12.2 °C 75% 1015.7 hPa 16.1 km South 9.3 km/h / 2.6 m/s - N/A   Mostly Cloudy
4:53 AM 15.6 °C 12.2 °C 80% 1015.5 hPa 16.1 km South 5.6 km/h / 1.5 m/s - N/A   Mostly Cloudy
5:53 AM 16.1 °C 12.2 °C 78% 1015.3 hPa 16.1 km South 9.3 km/h / 2.6 m/s - N/A   Mostly Cloudy
6:53 AM 15.0 °C 12.2 °C 83% 1015.5 hPa 16.1 km South 9.3 km/h / 2.6 m/s - N/A   Mostly Cloudy
7:53 AM 15.6 °C 12.2 °C 80% 1015.5 hPa 16.1 km SSE 9.3 km/h / 2.6 m/s - N/A   Mostly Cloudy
8:53 AM 16.7 °C 12.8 °C 78% 1015.5 hPa 16.1 km South 11.1 km/h / 3.1 m/s - N/A   Overcast
9:53 AM 17.2 °C 13.3 °C 78% 1015.8 hPa 16.1 km South 13.0 km/h / 3.6 m/s - N/A   Overcast
10:53 AM 17.2 °C 13.9 °C 81% 1016.0 hPa 12.9 km SSW 14.8 km/h / 4.1 m/s - 0.0 mm Rain Light Rain
11:00 AM 17.0 °C 14.0 °C 82% 1016.1 hPa 8.0 km South 11.1 km/h / 3.1 m/s - 0.0 mm Rain Light Rain
11:41 AM 17.0 °C 16.0 °C 94% 1016.1 hPa 12.9 km South 16.7 km/h / 4.6 m/s - 0.5 mm   Overcast
11:53 AM 17.2 °C 15.6 °C 90% 1016.0 hPa 11.3 km South 14.8 km/h / 4.1 m/s - 0.5 mm   Overcast
12:35 PM 17.0 °C 16.0 °C 94% 1016.1 hPa 8.0 km South 14.8 km/h / 4.1 m/s - 0.0 mm Rain Light Rain
12:53 PM 17.2 °C 16.1 °C 93% 1016.1 hPa 8.0 km South 11.1 km/h / 3.1 m/s - 0.0 mm Rain Light Rain
1:13 PM 17.0 °C 16.0 °C 94% 1016.1 hPa 4.8 km South 14.8 km/h / 4.1 m/s - 0.0 mm Rain Light Rain
1:36 PM 17.0 °C 16.0 °C 94% 1015.8 hPa 4.8 km South 14.8 km/h / 4.1 m/s - 0.5 mm Rain Light Rain
1:53 PM 17.2 °C 16.1 °C 93% 1015.6 hPa 4.8 km South 13.0 km/h / 3.6 m/s - 0.5 mm Rain Light Rain
2:49 PM 17.0 °C 16.0 °C 94% 1015.1 hPa 9.7 km South 11.1 km/h / 3.1 m/s - 0.0 mm   Overcast
2:53 PM 17.2 °C 16.1 °C 93% 1015.2 hPa 9.7 km South 9.3 km/h / 2.6 m/s - 0.0 mm   Overcast
3:29 PM 17.0 °C 16.0 °C 94% 1015.1 hPa 4.8 km SSE 7.4 km/h / 2.1 m/s - N/A   Overcast
3:48 PM 17.0 °C 17.0 °C 100% 1015.1 hPa 3.2 km SSE 9.3 km/h / 2.6 m/s - 0.0 mm Rain Light Rain
3:53 PM 16.7 °C 16.7 °C 100% 1015.1 hPa 3.2 km SSE 11.1 km/h / 3.1 m/s - 0.0 mm Rain Light Rain
3:58 PM 17.0 °C 17.0 °C 100% 1015.1 hPa 1.6 km SSE 9.3 km/h / 2.6 m/s - 0.0 mm Rain Light Rain
4:53 PM 17.2 °C 16.7 °C 97% 1014.9 hPa 2.4 km South 9.3 km/h / 2.6 m/s - 0.8 mm Rain Light Rain
5:10 PM 17.0 °C 17.0 °C 100% 1015.1 hPa 2.4 km South 7.4 km/h / 2.1 m/s - 0.0 mm Rain Light Rain
5:53 PM 17.2 °C 16.7 °C 97% 1015.2 hPa 2.4 km SW 5.6 km/h / 1.5 m/s - 0.3 mm Rain Light Rain
6:19 PM 17.0 °C 16.0 °C 94% 1015.1 hPa 2.4 km West 11.1 km/h / 3.1 m/s - 0.3 mm Rain Light Rain
6:41 PM 16.0 °C 16.0 °C 100% 1015.5 hPa 3.2 km NNW 14.8 km/h / 4.1 m/s - 0.3 mm Rain Light Rain
6:53 PM 16.1 °C 15.6 °C 97% 1015.5 hPa 3.2 km NNW 14.8 km/h / 4.1 m/s - 0.3 mm Rain Light Rain
6:57 PM 16.0 °C 15.0 °C 94% 1015.5 hPa 8.0 km NNW 13.0 km/h / 3.6 m/s - 0.0 mm Rain Light Rain
7:53 PM 15.6 °C 15.0 °C 96% 1015.6 hPa 12.9 km NNW 9.3 km/h / 2.6 m/s - 0.0 mm Rain Light Rain
8:53 PM 15.6 °C 15.0 °C 96% 1015.5 hPa 16.1 km NNE 9.3 km/h / 2.6 m/s - 0.3 mm   Overcast
9:53 PM 15.6 °C 15.0 °C 96% 1015.4 hPa 16.1 km North 9.3 km/h / 2.6 m/s - N/A   Overcast
10:53 PM 15.6 °C 14.4 °C 93% 1015.3 hPa 16.1 km NNE 7.4 km/h / 2.1 m/s - N/A   Overcast
11:53 PM 15.0 °C 14.4 °C 96% 1015.6 hPa 16.1 km North 9.3 km/h / 2.6 m/s - N/A   Overcast